GFSNE_prec_precacc6_159.txt.gz
Total_Precipitation_Accumulation
0.01 0.01 0.02 0.01 0.02 0.03 0.04 0.05 0.05 0.03 0.01 0.00 0.00 0.02 0.07 0.08 0.08 0.11 0.15 0.18 0.22 0.21 0.24 0.26 0.31 0.33 0.27 0.25 0.19 0.10 0.04 0.03 0.06 0.05 0.02 0.00 0.00 0.00
0.00 0.00 0.01 0.01 0.00 0.01 0.01 0.03 0.05 0.05 0.02 0.01 0.02 0.03 0.04 0.09 0.14 0.18 0.21 0.22 0.28 0.38 0.43 0.42 0.35 0.30 0.27 0.25 0.26 0.19 0.11 0.05 0.05 0.07 0.05 0.02 0.01 0.00
0.00 0.01 0.01 0.01 0.01 0.00 0.01 0.02 0.02 0.04 0.04 0.04 0.08 0.09 0.09 0.03 0.01 0.02 0.06 0.16 0.29 0.34 0.45 0.59 0.62 0.55 0.45 0.42 0.31 0.21 0.16 0.13 0.09 0.07 0.07 0.05 0.03 0.01
0.01 0.01 0.04 0.05 0.05 0.03 0.03 0.09 0.09 0.05 0.04 0.05 0.08 0.12 0.09 0.08 0.06 0.03 0.01 0.00 0.02 0.08 0.11 0.37 0.57 0.50 0.60 0.70 0.76 0.54 0.33 0.25 0.17 0.10 0.06 0.05 0.05 0.04
0.03 0.04 0.08 0.14 0.17 0.26 0.20 0.10 0.10 0.14 0.12 0.06 0.06 0.05 0.11 0.11 0.13 0.10 0.05 0.03 0.01 0.02 0.02 0.09 0.26 0.44 0.46 0.50 0.51 0.43 0.32 0.29 0.27 0.23 0.14 0.08 0.06 0.06
0.01 0.02 0.05 0.10 0.19 0.27 0.36 0.41 0.32 0.20 0.20 0.17 0.07 0.07 0.05 0.09 0.10 0.18 0.17 0.07 0.04 0.04 0.07 0.06 0.19 0.28 0.31 0.37 0.40 0.34 0.30 0.26 0.20 0.19 0.19 0.18 0.15 0.13
0.00 0.00 0.01 0.02 0.06 0.16 0.23 0.32 0.41 0.39 0.33 0.30 0.23 0.12 0.10 0.06 0.10 0.09 0.12 0.14 0.08 0.04 0.02 0.03 0.07 0.27 0.42 0.36 0.40 0.40 0.36 0.28 0.26 0.20 0.19 0.16 0.17 0.18
0.00 0.00 0.00 0.00 0.00 0.01 0.05 0.13 0.23 0.34 0.28 0.24 0.27 0.23 0.12 0.08 0.09 0.07 0.03 0.02 0.01 0.01 0.04 0.05 0.04 0.08 0.21 0.46 0.61 0.62 0.48 0.50 0.41 0.33 0.25 0.20 0.13 0.11
0.00 0.00 0.00 0.00 0.00 0.00 0.00 0.01 0.03 0.09 0.21 0.21 0.15 0.15 0.16 0.12 0.07 0.05 0.07 0.07 0.05 0.04 0.05 0.05 0.03 0.04 0.08 0.19 0.42 0.62 0.67 0.62 0.57 0.47 0.37 0.30 0.22 0.17
0.00 0.00 0.00 0.00 0.00 0.00 0.00 0.00 0.00 0.01 0.03 0.08 0.11 0.13 0.15 0.10 0.09 0.10 0.04 0.04 0.06 0.08 0.04 0.03 0.04 0.08 0.09 0.18 0.39 0.53 0.52 0.61 0.66 0.62 0.51 0.41 0.33 0.26
0.00 0.00 0.00 0.00 0.00 0.00 0.00 0.00 0.00 0.00 0.00 0.00 0.01 0.01 0.01 0.02 0.03 0.02 0.05 0.04 0.07 0.11 0.10 0.08 0.09 0.13 0.12 0.19 0.32 0.42 0.56 0.57 0.56 0.58 0.63 0.52 0.40 0.28
0.00 0.00 0.00 0.00 0.00 0.00 0.00 0.00 0.00 0.00 0.00 0.00 0.00 0.00 0.00 0.00 0.00 0.01 0.03 0.06 0.10 0.12 0.16 0.14 0.13 0.14 0.16 0.20 0.28 0.34 0.44 0.53 0.59 0.56 0.49 0.55 0.56 0.40
0.00 0.00 0.00 0.00 0.00 0.00 0.00 0.00 0.00 0.00 0.00 0.00 0.00 0.00 0.00 0.00 0.00 0.00 0.00 0.00 0.02 0.06 0.06 0.09 0.09 0.12 0.16 0.20 0.26 0.31 0.35 0.42 0.52 0.59 0.60 0.61 0.55 0.57
0.01 0.00 0.00 0.00 0.00 0.00 0.00 0.00 0.00 0.00 0.00 0.00 0.00 0.00 0.00 0.00 0.00 0.00 0.00 0.00 0.00 0.00 0.00 0.00 0.02 0.03 0.04 0.05 0.06 0.07 0.13 0.13 0.16 0.23 0.37 0.48 0.55 0.58
0.00 0.00 0.00 0.00 0.00 0.00 0.00 0.00 0.00 0.00 0.00 0.00 0.00 0.00 0.00 0.00 0.00 0.00 0.00 0.00 0.00 0.00 0.00 0.00 0.00 0.00 0.01 0.01 0.02 0.02 0.02 0.02 0.01 0.04 0.08 0.14 0.20 0.24
0.00 0.00 0.00 0.00 0.00 0.00 0.00 0.00 0.00 0.00 0.00 0.00 0.00 0.00 0.00 0.00 0.00 0.00 0.00 0.00 0.00 0.00 0.00 0.00 0.00 0.00 0.00 0.00 0.00 0.00 0.00 0.00 0.00 0.00 0.01 0.02 0.04 0.06
0.00 0.00 0.00 0.00 0.00 0.00 0.00 0.00 0.00 0.00 0.00 0.00 0.00 0.00 0.00 0.00 0.00 0.00 0.00 0.00 0.00 0.00 0.00 0.00 0.00 0.00 0.00 0.00 0.00 0.00 0.00 0.00 0.00 0.00 0.00 0.01 0.00 0.00
0.00 0.00 0.00 0.00 0.00 0.00 0.00 0.00 0.00 0.01 0.00 0.00 0.00 0.00 0.00 0.00 0.00 0.00 0.00 0.00 0.00 0.00 0.00 0.00 0.00 0.00 0.00 0.00 0.00 0.00 0.00 0.00 0.00 0.00 0.00 0.01 0.00 0.00
0.00 0.00 0.00 0.00 0.00 0.00 0.00 0.00 0.01 0.01 0.01 0.00 0.00 0.00 0.00 0.00 0.00 0.00 0.00 0.00 0.00 0.00 0.00 0.00 0.00 0.00 0.00 0.00 0.00 0.00 0.00 0.00 0.00 0.00 0.00 0.00 0.00 0.00
0.00 0.00 0.00 0.00 0.00 0.00 0.00 0.00 0.00 0.00 0.01 0.00 0.00 0.00 0.00 0.00 0.00 0.00 0.00 0.00 0.00 0.00 0.00 0.00 0.00 0.00 0.00 0.00 0.00 0.00 0.00 0.00 0.00 0.00 0.00 0.00 0.00 0.00
0.00 0.00 0.00 0.00 0.00 0.00 0.00 0.00 0.00 0.00 0.01 0.01 0.00 0.00 0.00 0.00 0.00 0.00 0.00 0.00 0.00 0.00 0.00 0.00 0.00 0.00 0.00 0.00 0.00 0.00 0.00 0.00 0.00 0.00 0.00 0.00 0.00 0.00
0.00 0.00 0.00 0.00 0.00 0.00 0.00 0.00 0.00 0.00 0.00 0.01 0.00 0.00 0.00 0.00 0.00 0.00 0.00 0.00 0.00 0.00 0.00 0.00 0.00 0.00 0.00 0.00 0.00 0.00 0.00 0.00 0.00 0.00 0.00 0.01 0.04 0.03
0.00 0.00 0.00 0.00 0.00 0.00 0.00 0.00 0.00 0.00 0.00 0.01 0.00 0.00 0.00 0.00 0.00 0.00 0.00 0.00 0.00 0.00 0.00 0.00 0.00 0.00 0.00 0.00 0.00 0.00 0.00 0.00 0.00 0.00 0.00 0.00 0.00 0.00

GFSNE_prec_precacc6_162.txt.gz
Total_Precipitation_Accumulation
0.00 0.00 0.00 0.01 0.01 0.01 0.01 0.02 0.03 0.03 0.01 0.00 0.00 0.00 0.00 0.02 0.04 0.05 0.04 0.06 0.09 0.09 0.10 0.12 0.20 0.30 0.50 0.75 0.74 0.40 0.14 0.11 0.11 0.11 0.06 0.03 0.12 0.09
0.00 0.00 0.00 0.00 0.00 0.00 0.01 0.01 0.02 0.03 0.02 0.00 0.00 0.00 0.00 0.00 0.03 0.05 0.08 0.10 0.10 0.11 0.13 0.14 0.14 0.12 0.13 0.18 0.32 0.38 0.23 0.11 0.08 0.10 0.10 0.06 0.03 0.08
0.00 0.01 0.00 0.00 0.00 0.01 0.01 0.01 0.01 0.02 0.02 0.00 0.00 0.01 0.02 0.01 0.04 0.05 0.03 0.04 0.05 0.07 0.08 0.16 0.21 0.28 0.34 0.35 0.26 0.26 0.29 0.27 0.19 0.12 0.11 0.09 0.07 0.04
0.00 0.01 0.01 0.00 0.00 0.01 0.01 0.01 0.02 0.02 0.02 0.01 0.01 0.02 0.03 0.05 0.09 0.11 0.07 0.03 0.01 0.04 0.07 0.25 0.36 0.31 0.39 0.63 0.71 0.76 0.62 0.60 0.57 0.39 0.19 0.09 0.08 0.06
0.00 0.01 0.01 0.00 0.01 0.02 0.04 0.05 0.03 0.06 0.09 0.05 0.03 0.03 0.10 0.15 0.18 0.18 0.16 0.07 0.01 0.04 0.03 0.07 0.15 0.22 0.21 0.29 0.35 0.40 0.39 0.38 0.47 0.65 0.66 0.35 0.12 0.08
0.00 0.00 0.00 0.00 0.01 0.02 0.06 0.17 0.18 0.11 0.12 0.14 0.09 0.09 0.08 0.18 0.21 0.27 0.28 0.16 0.07 0.04 0.05 0.05 0.05 0.06 0.12 0.13 0.15 0.19 0.19 0.23 0.20 0.18 0.26 0.38 0.48 0.34
0.00 0.00 0.00 0.00 0.00 0.01 0.05 0.13 0.19 0.23 0.28 0.24 0.22 0.15 0.14 0.10 0.25 0.29 0.25 0.30 0.28 0.16 0.03 0.02 0.02 0.02 0.03 0.03 0.02 0.03 0.11 0.15 0.26 0.23 0.20 0.18 0.20 0.30
0.00 0.00 0.00 0.00 0.00 0.00 0.00 0.05 0.13 0.22 0.23 0.28 0.41 0.41 0.30 0.25 0.20 0.29 0.26 0.17 0.17 0.23 0.24 0.13 0.04 0.03 0.02 0.02 0.01 0.02 0.07 0.16 0.25 0.31 0.29 0.30 0.26 0.17
0.00 0.00 0.00 0.00 0.00 0.00 0.00 0.00 0.02 0.07 0.19 0.21 0.20 0.29 0.38 0.37 0.30 0.19 0.24 0.28 0.21 0.15 0.09 0.13 0.16 0.12 0.04 0.02 0.01 0.01 0.05 0.11 0.25 0.31 0.28 0.28 0.28 0.29
0.00 0.00 0.00 0.00 0.00 0.00 0.00 0.00 0.00 0.01 0.04 0.10 0.15 0.16 0.22 0.27 0.27 0.26 0.18 0.17 0.17 0.16 0.09 0.06 0.05 0.09 0.03 0.02 0.02 0.01 0.01 0.05 0.16 0.33 0.33 0.27 0.24 0.23
0.00 0.00 0.00 0.00 0.00 0.00 0.00 0.00 0.00 0.00 0.00 0.01 0.03 0.05 0.04 0.05 0.12 0.14 0.15 0.14 0.12 0.11 0.08 0.08 0.07 0.07 0.03 0.02 0.02 0.01 0.01 0.01 0.03 0.17 0.38 0.36 0.31 0.26
0.00 0.00 0.00 0.00 0.00 0.00 0.00 0.00 0.00 0.00 0.00 0.00 0.00 0.00 0.01 0.01 0.01 0.04 0.08 0.10 0.12 0.10 0.09 0.09 0.08 0.07 0.04 0.03 0.03 0.03 0.03 0.02 0.04 0.07 0.16 0.31 0.35 0.31
0.00 0.00 0.00 0.00 0.00 0.00 0.00 0.00 0.00 0.00 0.00 0.00 0.00 0.00 0.00 0.00 0.00 0.00 0.00 0.01 0.02 0.05 0.04 0.04 0.04 0.05 0.06 0.06 0.05 0.05 0.05 0.07 0.08 0.11 0.18 0.27 0.30 0.38
0.01 0.00 0.00 0.00 0.00 0.00 0.00 0.00 0.00 0.00 0.00 0.00 0.00 0.00 0.00 0.00 0.00 0.00 0.00 0.00 0.00 0.00 0.00 0.00 0.01 0.01 0.01 0.01 0.02 0.01 0.02 0.02 0.04 0.07 0.15 0.26 0.32 0.37
0.00 0.00 0.00 0.00 0.00 0.00 0.00 0.00 0.00 0.00 0.00 0.00 0.00 0.00 0.00 0.00 0.00 0.00 0.00 0.00 0.00 0.00 0.00 0.00 0.00 0.00 0.00 0.00 0.00 0.00 0.00 0.00 0.00 0.01 0.04 0.11 0.17 0.21
0.00 0.00 0.00 0.00 0.00 0.00 0.00 0.00 0.00 0.00 0.00 0.00 0.00 0.00 0.00 0.00 0.00 0.00 0.00 0.00 0.00 0.00 0.00 0.00 0.00 0.00 0.00 0.00 0.00 0.00 0.00 0.00 0.00 0.00 0.01 0.02 0.04 0.06
0.00 0.00 0.00 0.00 0.00 0.00 0.00 0.00 0.00 0.00 0.00 0.00 0.00 0.00 0.00 0.00 0.00 0.00 0.00 0.00 0.00 0.00 0.00 0.00 0.00 0.00 0.00 0.00 0.00 0.00 0.00 0.00 0.00 0.00 0.00 0.01 0.00 0.00
0.00 0.00 0.00 0.00 0.00 0.00 0.00 0.00 0.00 0.00 0.00 0.00 0.00 0.00 0.00 0.00 0.00 0.00 0.00 0.00 0.00 0.00 0.00 0.00 0.00 0.00 0.00 0.00 0.00 0.00 0.00 0.00 0.00 0.00 0.00 0.00 0.00 0.00
0.00 0.00 0.00 0.00 0.00 0.00 0.00 0.00 0.00 0.01 0.00 0.00 0.00 0.00 0.00 0.00 0.00 0.00 0.00 0.00 0.00 0.00 0.00 0.00 0.00 0.00 0.00 0.00 0.00 0.00 0.00 0.00 0.00 0.00 0.00 0.00 0.00 0.00
0.00 0.00 0.00 0.00 0.00 0.00 0.00 0.00 0.00 0.00 0.00 0.00 0.00 0.00 0.00 0.00 0.00 0.00 0.00 0.00 0.00 0.00 0.00 0.00 0.00 0.00 0.00 0.00 0.00 0.00 0.00 0.00 0.00 0.00 0.00 0.00 0.00 0.00
0.00 0.00 0.00 0.00 0.00 0.00 0.00 0.00 0.00 0.00 0.00 0.00 0.00 0.00 0.00 0.00 0.00 0.00 0.00 0.00 0.00 0.00 0.00 0.00 0.00 0.00 0.00 0.00 0.00 0.00 0.00 0.00 0.00 0.00 0.00 0.00 0.00 0.00
0.00 0.00 0.00 0.00 0.00 0.00 0.00 0.00 0.00 0.00 0.00 0.00 0.00 0.00 0.00 0.00 0.00 0.00 0.00 0.00 0.00 0.00 0.00 0.00 0.00 0.00 0.00 0.00 0.00 0.00 0.00 0.00 0.00 0.00 0.00 0.00 0.01 0.01
0.00 0.00 0.00 0.00 0.00 0.00 0.00 0.00 0.00 0.00 0.00 0.00 0.00 0.00 0.00 0.00 0.00 0.00 0.00 0.00 0.00 0.00 0.00 0.00 0.00 0.00 0.00 0.00 0.00 0.00 0.00 0.00 0.00 0.00 0.00 0.00 0.00 0.00

GFSNE_prec_precacc6_165.txt.gz
Total_Precipitation_Accumulation
0.00 0.00 0.00 0.01 0.00 0.01 0.01 0.02 0.05 0.03 0.00 0.00 0.00 0.00 0.00 0.00 0.01 0.01 0.00 0.01 0.00 0.00 0.03 0.04 0.04 0.10 0.34 0.65 0.93 0.99 0.83 0.51 0.24 0.17 0.12 0.07 0.17 0.27
0.00 0.00 0.00 0.00 0.00 0.00 0.01 0.01 0.02 0.04 0.03 0.00 0.00 0.00 0.00 0.00 0.02 0.02 0.04 0.05 0.01 0.01 0.03 0.05 0.06 0.06 0.04 0.07 0.18 0.34 0.51 0.41 0.24 0.14 0.12 0.08 0.05 0.15
0.00 0.00 0.00 0.00 0.00 0.00 0.00 0.01 0.01 0.02 0.02 0.00 0.00 0.00 0.01 0.00 0.04 0.06 0.04 0.02 0.02 0.02 0.02 0.05 0.11 0.13 0.13 0.08 0.06 0.12 0.18 0.24 0.25 0.18 0.12 0.09 0.06 0.05
0.00 0.00 0.00 0.00 0.00 0.00 0.01 0.01 0.01 0.01 0.02 0.01 0.00 0.00 0.01 0.03 0.05 0.10 0.08 0.06 0.03 0.04 0.04 0.05 0.09 0.11 0.12 0.15 0.12 0.34 0.39 0.41 0.43 0.35 0.22 0.12 0.08 0.06
0.00 0.00 0.00 0.00 0.00 0.00 0.00 0.01 0.01 0.00 0.01 0.02 0.01 0.01 0.03 0.08 0.07 0.11 0.16 0.12 0.06 0.09 0.06 0.07 0.12 0.15 0.12 0.12 0.10 0.15 0.24 0.22 0.29 0.49 0.64 0.59 0.33 0.12
0.00 0.00 0.00 0.00 0.00 0.00 0.01 0.01 0.01 0.01 0.00 0.02 0.05 0.04 0.04 0.10 0.14 0.13 0.19 0.19 0.14 0.07 0.05 0.07 0.08 0.10 0.15 0.12 0.13 0.16 0.10 0.13 0.14 0.12 0.19 0.40 0.70 0.69
0.00 0.00 0.00 0.00 0.00 0.00 0.01 0.02 0.01 0.01 0.02 0.03 0.07 0.10 0.10 0.08 0.20 0.27 0.23 0.27 0.33 0.25 0.12 0.03 0.03 0.06 0.05 0.07 0.08 0.08 0.14 0.13 0.13 0.13 0.11 0.16 0.26 0.41
0.00 0.00 0.00 0.00 0.00 0.00 0.00 0.01 0.01 0.02 0.03 0.05 0.16 0.20 0.22 0.23 0.16 0.32 0.41 0.29 0.29 0.41 0.45 0.24 0.07 0.05 0.07 0.05 0.06 0.05 0.04 0.03 0.07 0.14 0.12 0.14 0.20 0.19
0.00 0.00 0.00 0.00 0.00 0.00 0.00 0.00 0.00 0.00 0.03 0.05 0.07 0.18 0.27 0.33 0.33 0.22 0.31 0.47 0.39 0.31 0.31 0.44 0.44 0.29 0.14 0.10 0.08 0.04 0.03 0.03 0.02 0.01 0.03 0.06 0.13 0.19
0.00 0.00 0.00 0.00 0.00 0.00 0.00 0.00 0.00 0.00 0.01 0.03 0.07 0.08 0.15 0.25 0.29 0.33 0.29 0.32 0.42 0.35 0.27 0.26 0.24 0.35 0.38 0.28 0.17 0.10 0.08 0.04 0.02 0.01 0.00 0.00 0.02 0.07
0.00 0.00 0.00 0.00 0.00 0.00 0.00 0.00 0.00 0.00 0.00 0.00 0.01 0.04 0.03 0.04 0.12 0.17 0.20 0.22 0.21 0.22 0.19 0.21 0.21 0.20 0.13 0.16 0.20 0.17 0.13 0.08 0.04 0.01 0.01 0.01 0.03 0.06
0.00 0.00 0.00 0.00 0.00 0.00 0.00 0.00 0.00 0.00 0.00 0.00 0.00 0.00 0.01 0.01 0.01 0.05 0.09 0.13 0.16 0.14 0.12 0.13 0.12 0.12 0.12 0.07 0.03 0.02 0.03 0.03 0.01 0.01 0.00 0.00 0.02 0.05
0.00 0.00 0.00 0.00 0.00 0.00 0.00 0.00 0.00 0.00 0.00 0.00 0.00 0.00 0.00 0.00 0.01 0.01 0.01 0.03 0.03 0.05 0.05 0.06 0.06 0.05 0.06 0.05 0.01 0.00 0.00 0.00 0.00 0.00 0.00 0.00 0.00 0.03
0.01 0.00 0.00 0.00 0.00 0.00 0.00 0.00 0.00 0.00 0.00 0.00 0.00 0.00 0.00 0.00 0.00 0.00 0.00 0.00 0.01 0.01 0.00 0.01 0.01 0.01 0.01 0.00 0.00 0.00 0.00 0.00 0.00 0.00 0.00 0.00 0.00 0.01
0.00 0.00 0.00 0.00 0.00 0.00 0.00 0.00 0.00 0.00 0.00 0.00 0.00 0.00 0.00 0.00 0.00 0.00 0.00 0.00 0.00 0.00 0.00 0.00 0.00 0.00 0.00 0.00 0.00 0.00 0.00 0.00 0.00 0.00 0.00 0.01 0.00 0.00
0.00 0.00 0.00 0.00 0.00 0.00 0.00 0.00 0.00 0.00 0.00 0.00 0.00 0.00 0.00 0.00 0.00 0.00 0.00 0.00 0.00 0.00 0.00 0.00 0.00 0.00 0.00 0.00 0.00 0.00 0.00 0.00 0.00 0.00 0.00 0.00 0.00 0.00
0.00 0.00 0.00 0.00 0.00 0.00 0.00 0.00 0.00 0.00 0.00 0.00 0.00 0.00 0.00 0.00 0.00 0.00 0.00 0.00 0.00 0.00 0.00 0.00 0.00 0.00 0.00 0.00 0.00 0.00 0.00 0.00 0.00 0.00 0.00 0.00 0.00 0.00
0.00 0.00 0.00 0.00 0.00 0.00 0.00 0.00 0.00 0.00 0.00 0.00 0.00 0.00 0.00 0.00 0.00 0.00 0.00 0.00 0.00 0.00 0.00 0.00 0.00 0.00 0.00 0.00 0.00 0.00 0.00 0.00 0.00 0.00 0.00 0.00 0.00 0.00
0.00 0.00 0.00 0.00 0.00 0.00 0.00 0.00 0.00 0.00 0.00 0.00 0.00 0.00 0.00 0.00 0.00 0.00 0.00 0.00 0.00 0.00 0.00 0.00 0.00 0.00 0.00 0.00 0.00 0.00 0.00 0.00 0.00 0.00 0.00 0.00 0.00 0.00
0.00 0.00 0.00 0.00 0.00 0.00 0.00 0.00 0.00 0.00 0.00 0.00 0.00 0.00 0.00 0.00 0.00 0.00 0.00 0.00 0.00 0.00 0.00 0.00 0.00 0.00 0.00 0.00 0.00 0.00 0.00 0.00 0.00 0.00 0.00 0.00 0.00 0.00
0.00 0.00 0.00 0.00 0.00 0.00 0.00 0.00 0.00 0.00 0.00 0.00 0.00 0.00 0.00 0.00 0.00 0.00 0.00 0.00 0.00 0.00 0.00 0.00 0.00 0.00 0.00 0.00 0.00 0.00 0.00 0.00 0.00 0.00 0.00 0.00 0.00 0.00
0.00 0.00 0.00 0.00 0.00 0.00 0.00 0.00 0.00 0.00 0.00 0.00 0.00 0.00 0.00 0.00 0.00 0.00 0.00 0.00 0.00 0.00 0.00 0.00 0.00 0.00 0.00 0.00 0.00 0.00 0.00 0.00 0.00 0.00 0.00 0.00 0.00 0.00
0.00 0.00 0.00 0.00 0.00 0.00 0.00 0.00 0.00 0.00 0.00 0.00 0.00 0.00 0.00 0.00 0.00 0.00 0.00 0.00 0.00 0.00 0.00 0.00 0.00 0.00 0.00 0.00 0.00 0.00 0.00 0.00 0.00 0.00 0.00 0.00 0.00 0.00

GFSNE_prec_precacc6_168.txt.gz
Total_Precipitation_Accumulation
0.00 0.00 0.00 0.00 0.00 0.00 0.01 0.02 0.05 0.03 0.00 0.00 0.00 0.00 0.00 0.00 0.01 0.01 0.01 0.02 0.00 0.00 0.00 0.00 0.00 0.01 0.01 0.11 0.49 1.02 1.27 1.15 0.64 0.28 0.25 0.17 0.17 0.29
0.00 0.00 0.00 0.00 0.00 0.00 0.00 0.01 0.02 0.04 0.03 0.00 0.00 0.00 0.00 0.00 0.01 0.01 0.02 0.02 0.01 0.00 0.00 0.00 0.01 0.03 0.02 0.02 0.06 0.16 0.41 0.50 0.61 0.37 0.19 0.16 0.14 0.17
0.00 0.00 0.00 0.00 0.00 0.00 0.00 0.00 0.00 0.01 0.02 0.00 0.00 0.00 0.00 0.00 0.01 0.02 0.02 0.01 0.02 0.02 0.01 0.02 0.02 0.03 0.04 0.03 0.04 0.02 0.03 0.09 0.17 0.21 0.21 0.17 0.16 0.19
0.00 0.00 0.00 0.00 0.00 0.00 0.00 0.00 0.00 0.01 0.02 0.01 0.00 0.00 0.01 0.01 0.01 0.02 0.02 0.04 0.03 0.04 0.03 0.04 0.05 0.04 0.05 0.07 0.07 0.05 0.03 0.02 0.03 0.07 0.13 0.14 0.13 0.10
0.00 0.00 0.00 0.00 0.00 0.00 0.00 0.00 0.00 0.00 0.01 0.01 0.00 0.00 0.01 0.01 0.02 0.03 0.04 0.06 0.06 0.09 0.06 0.05 0.08 0.09 0.08 0.10 0.10 0.07 0.06 0.04 0.02 0.02 0.11 0.32 0.30 0.20
0.00 0.00 0.00 0.00 0.00 0.00 0.00 0.01 0.00 0.00 0.00 0.00 0.00 0.00 0.01 0.01 0.03 0.05 0.07 0.11 0.11 0.09 0.09 0.10 0.09 0.10 0.11 0.11 0.15 0.18 0.10 0.06 0.06 0.04 0.04 0.13 0.31 0.44
0.00 0.00 0.00 0.00 0.00 0.00 0.01 0.01 0.01 0.00 0.00 0.00 0.00 0.00 0.01 0.03 0.05 0.10 0.13 0.14 0.14 0.15 0.14 0.07 0.05 0.08 0.09 0.12 0.15 0.14 0.19 0.16 0.08 0.04 0.04 0.08 0.16 0.22
0.00 0.00 0.00 0.00 0.00 0.00 0.00 0.00 0.01 0.01 0.01 0.01 0.01 0.01 0.02 0.04 0.05 0.12 0.22 0.16 0.16 0.21 0.30 0.21 0.09 0.07 0.13 0.17 0.16 0.17 0.13 0.12 0.17 0.15 0.10 0.05 0.10 0.18
0.00 0.00 0.00 0.00 0.00 0.00 0.00 0.00 0.00 0.00 0.01 0.02 0.02 0.03 0.04 0.08 0.11 0.08 0.15 0.30 0.27 0.24 0.26 0.38 0.38 0.29 0.17 0.18 0.24 0.18 0.14 0.14 0.08 0.12 0.17 0.14 0.10 0.08
0.00 0.00 0.00 0.00 0.00 0.00 0.00 0.00 0.00 0.00 0.00 0.01 0.02 0.02 0.04 0.06 0.09 0.16 0.16 0.22 0.33 0.30 0.28 0.29 0.31 0.43 0.54 0.42 0.26 0.26 0.25 0.14 0.10 0.07 0.08 0.14 0.12 0.13
0.00 0.00 0.00 0.00 0.00 0.00 0.00 0.00 0.00 0.00 0.00 0.00 0.00 0.00 0.00 0.01 0.03 0.05 0.09 0.13 0.14 0.18 0.20 0.26 0.27 0.30 0.28 0.35 0.42 0.34 0.29 0.27 0.18 0.12 0.06 0.04 0.03 0.03
0.00 0.00 0.00 0.00 0.00 0.00 0.00 0.00 0.00 0.00 0.00 0.00 0.00 0.00 0.00 0.00 0.00 0.02 0.03 0.05 0.08 0.09 0.09 0.14 0.17 0.20 0.25 0.19 0.15 0.20 0.22 0.20 0.23 0.20 0.10 0.05 0.02 0.01
0.00 0.00 0.00 0.00 0.00 0.00 0.00 0.00 0.00 0.00 0.00 0.00 0.00 0.00 0.00 0.00 0.00 0.00 0.01 0.02 0.02 0.03 0.03 0.05 0.06 0.08 0.11 0.11 0.06 0.03 0.06 0.08 0.08 0.11 0.13 0.10 0.05 0.02
0.00 0.00 0.00 0.00 0.00 0.00 0.00 0.00 0.00 0.00 0.00 0.00 0.00 0.00 0.00 0.00 0.00 0.00 0.00 0.00 0.01 0.01 0.01 0.01 0.02 0.02 0.02 0.02 0.01 0.01 0.01 0.01 0.02 0.03 0.04 0.07 0.08 0.06
0.00 0.00 0.00 0.00 0.00 0.00 0.00 0.00 0.00 0.00 0.00 0.00 0.00 0.00 0.00 0.00 0.00 0.00 0.00 0.00 0.00 0.00 0.00 0.00 0.01 0.01 0.00 0.01 0.01 0.00 0.00 0.00 0.00 0.00 0.00 0.01 0.02 0.04
0.00 0.00 0.00 0.00 0.00 0.00 0.00 0.00 0.00 0.00 0.00 0.00 0.00 0.00 0.00 0.00 0.00 0.00 0.00 0.00 0.00 0.00 0.00 0.00 0.00 0.00 0.00 0.00 0.00 0.00 0.00 0.00 0.00 0.00 0.00 0.00 0.00 0.00
0.00 0.00 0.00 0.00 0.00 0.00 0.00 0.00 0.00 0.00 0.00 0.00 0.00 0.00 0.00 0.00 0.00 0.00 0.00 0.00 0.00 0.00 0.00 0.00 0.00 0.00 0.00 0.00 0.00 0.00 0.00 0.00 0.00 0.00 0.00 0.00 0.00 0.00
0.00 0.00 0.00 0.00 0.00 0.00 0.00 0.00 0.00 0.00 0.00 0.00 0.00 0.00 0.00 0.00 0.00 0.00 0.00 0.00 0.00 0.00 0.00 0.00 0.00 0.00 0.00 0.00 0.00 0.00 0.00 0.00 0.00 0.00 0.00 0.00 0.00 0.00
0.00 0.00 0.00 0.00 0.00 0.00 0.00 0.00 0.00 0.00 0.00 0.00 0.00 0.00 0.00 0.00 0.00 0.00 0.00 0.00 0.00 0.00 0.00 0.00 0.00 0.00 0.00 0.00 0.00 0.00 0.00 0.00 0.00 0.00 0.00 0.00 0.00 0.00
0.00 0.00 0.00 0.00 0.00 0.00 0.00 0.00 0.00 0.00 0.00 0.00 0.00 0.00 0.00 0.00 0.00 0.00 0.00 0.00 0.00 0.00 0.00 0.00 0.00 0.00 0.00 0.00 0.00 0.00 0.00 0.00 0.00 0.00 0.00 0.00 0.00 0.00
0.00 0.00 0.00 0.00 0.00 0.00 0.00 0.00 0.00 0.00 0.00 0.00 0.00 0.00 0.00 0.00 0.00 0.00 0.00 0.00 0.00 0.00 0.00 0.00 0.00 0.00 0.00 0.00 0.00 0.00 0.00 0.00 0.00 0.00 0.00 0.00 0.00 0.00
0.00 0.00 0.00 0.00 0.00 0.00 0.00 0.00 0.00 0.00 0.00 0.00 0.00 0.00 0.00 0.00 0.00 0.00 0.00 0.00 0.00 0.00 0.00 0.00 0.00 0.00 0.00 0.00 0.00 0.00 0.00 0.00 0.00 0.00 0.00 0.00 0.00 0.00
0.00 0.00 0.00 0.00 0.00 0.00 0.00 0.00 0.00 0.00 0.00 0.00 0.00 0.00 0.00 0.00 0.00 0.00 0.00 0.00 0.00 0.00 0.00 0.00 0.00 0.00 0.00 0.00 0.00 0.00 0.00 0.00 0.00 0.00 0.00 0.00 0.00 0.00

GFSNE_prec_precacc6_171.txt.gz
Total_Precipitation_Accumulation
0.00 0.00 0.00 0.00 0.00 0.00 0.00 0.01 0.03 0.02 0.00 0.00 0.00 0.00 0.00 0.00 0.00 0.00 0.02 0.03 0.00 0.00 0.00 0.00 0.00 0.00 0.01 0.03 0.14 0.35 0.68 1.25 1.42 0.75 0.51 0.76 0.53 0.29
0.00 0.00 0.00 0.00 0.00 0.00 0.00 0.00 0.01 0.02 0.03 0.00 0.00 0.00 0.00 0.00 0.01 0.01 0.03 0.03 0.03 0.01 0.01 0.01 0.01 0.01 0.01 0.01 0.03 0.05 0.05 0.19 0.68 0.78 0.65 0.50 0.75 0.70
0.00 0.00 0.00 0.00 0.00 0.00 0.00 0.00 0.00 0.01 0.01 0.00 0.00 0.00 0.00 0.00 0.01 0.01 0.02 0.01 0.02 0.03 0.01 0.02 0.01 0.01 0.02 0.02 0.03 0.04 0.05 0.06 0.06 0.14 0.25 0.27 0.24 0.58
0.00 0.00 0.00 0.00 0.00 0.00 0.00 0.00 0.00 0.00 0.00 0.01 0.00 0.00 0.00 0.01 0.01 0.01 0.01 0.00 0.01 0.04 0.02 0.02 0.03 0.03 0.03 0.04 0.05 0.07 0.07 0.09 0.10 0.07 0.05 0.08 0.09 0.10
0.00 0.00 0.00 0.00 0.00 0.00 0.00 0.00 0.00 0.00 0.00 0.00 0.00 0.00 0.00 0.00 0.01 0.01 0.02 0.01 0.01 0.03 0.02 0.02 0.03 0.04 0.05 0.07 0.07 0.07 0.07 0.07 0.07 0.08 0.08 0.04 0.04 0.11
0.00 0.00 0.00 0.00 0.00 0.00 0.00 0.00 0.00 0.00 0.00 0.00 0.00 0.00 0.00 0.00 0.01 0.01 0.02 0.03 0.03 0.04 0.05 0.06 0.05 0.04 0.05 0.08 0.10 0.11 0.09 0.07 0.08 0.07 0.06 0.05 0.04 0.03
0.00 0.00 0.00 0.00 0.00 0.00 0.00 0.00 0.00 0.00 0.00 0.00 0.00 0.00 0.00 0.00 0.01 0.03 0.04 0.06 0.04 0.03 0.05 0.04 0.05 0.07 0.09 0.10 0.12 0.13 0.13 0.10 0.08 0.08 0.08 0.07 0.05 0.05
0.00 0.00 0.00 0.00 0.00 0.00 0.00 0.00 0.00 0.00 0.01 0.01 0.00 0.01 0.01 0.01 0.01 0.02 0.04 0.04 0.05 0.04 0.09 0.09 0.07 0.06 0.14 0.22 0.17 0.17 0.15 0.14 0.17 0.12 0.13 0.11 0.12 0.12
0.00 0.00 0.00 0.00 0.00 0.00 0.00 0.00 0.00 0.00 0.01 0.01 0.01 0.02 0.02 0.03 0.02 0.02 0.03 0.06 0.07 0.07 0.05 0.09 0.11 0.14 0.11 0.14 0.22 0.18 0.19 0.22 0.16 0.19 0.24 0.21 0.17 0.15
0.00 0.00 0.00 0.00 0.00 0.00 0.00 0.00 0.00 0.00 0.00 0.00 0.01 0.01 0.01 0.01 0.02 0.03 0.04 0.06 0.10 0.08 0.10 0.10 0.13 0.17 0.22 0.20 0.13 0.19 0.22 0.17 0.18 0.18 0.18 0.22 0.20 0.20
0.00 0.00 0.00 0.00 0.00 0.00 0.00 0.00 0.00 0.00 0.00 0.00 0.00 0.00 0.00 0.00 0.00 0.00 0.01 0.02 0.04 0.06 0.08 0.13 0.13 0.16 0.19 0.21 0.24 0.19 0.18 0.26 0.26 0.21 0.19 0.15 0.13 0.12
0.00 0.00 0.00 0.00 0.00 0.00 0.00 0.00 0.00 0.00 0.00 0.00 0.00 0.00 0.00 0.00 0.00 0.00 0.00 0.00 0.01 0.03 0.03 0.07 0.10 0.13 0.18 0.17 0.14 0.19 0.21 0.20 0.28 0.30 0.22 0.17 0.14 0.08
0.00 0.00 0.00 0.00 0.00 0.00 0.00 0.00 0.00 0.00 0.00 0.00 0.00 0.00 0.00 0.00 0.00 0.00 0.00 0.00 0.00 0.01 0.01 0.03 0.03 0.05 0.09 0.10 0.08 0.04 0.09 0.11 0.13 0.17 0.26 0.24 0.14 0.12
0.00 0.00 0.00 0.00 0.00 0.00 0.00 0.00 0.00 0.00 0.00 0.00 0.00 0.00 0.00 0.00 0.00 0.00 0.00 0.00 0.00 0.00 0.00 0.01 0.02 0.02 0.02 0.02 0.02 0.01 0.02 0.03 0.05 0.07 0.08 0.16 0.20 0.16
0.00 0.00 0.00 0.00 0.00 0.00 0.00 0.00 0.00 0.00 0.00 0.00 0.00 0.00 0.00 0.00 0.00 0.00 0.00 0.00 0.00 0.00 0.00 0.00 0.01 0.01 0.00 0.01 0.01 0.01 0.01 0.01 0.01 0.01 0.03 0.05 0.06 0.10
0.00 0.00 0.00 0.00 0.00 0.00 0.00 0.00 0.00 0.00 0.00 0.00 0.00 0.00 0.00 0.00 0.00 0.00 0.00 0.00 0.00 0.00 0.00 0.00 0.00 0.00 0.00 0.00 0.00 0.00 0.00 0.00 0.00 0.00 0.00 0.01 0.01 0.02
0.00 0.00 0.00 0.00 0.00 0.00 0.00 0.00 0.00 0.00 0.00 0.00 0.00 0.00 0.00 0.00 0.00 0.00 0.00 0.00 0.00 0.00 0.00 0.00 0.00 0.00 0.00 0.00 0.00 0.00 0.00 0.00 0.00 0.00 0.00 0.00 0.00 0.00
0.00 0.00 0.00 0.00 0.00 0.00 0.00 0.00 0.00 0.00 0.00 0.00 0.00 0.00 0.00 0.00 0.00 0.00 0.00 0.00 0.00 0.00 0.00 0.00 0.00 0.00 0.00 0.00 0.00 0.00 0.00 0.00 0.00 0.00 0.00 0.00 0.00 0.00
0.00 0.00 0.00 0.00 0.00 0.00 0.00 0.00 0.00 0.00 0.00 0.00 0.00 0.00 0.00 0.00 0.00 0.00 0.00 0.00 0.00 0.00 0.00 0.00 0.00 0.00 0.00 0.00 0.00 0.00 0.00 0.00 0.00 0.00 0.00 0.00 0.00 0.00
0.00 0.00 0.00 0.00 0.00 0.00 0.00 0.00 0.00 0.00 0.00 0.00 0.00 0.00 0.00 0.00 0.00 0.00 0.00 0.00 0.00 0.00 0.00 0.00 0.00 0.00 0.00 0.00 0.00 0.00 0.00 0.00 0.00 0.00 0.00 0.00 0.00 0.00
0.00 0.00 0.00 0.00 0.00 0.00 0.00 0.00 0.00 0.00 0.00 0.01 0.01 0.00 0.00 0.00 0.00 0.00 0.00 0.00 0.00 0.00 0.00 0.00 0.00 0.00 0.00 0.00 0.00 0.00 0.00 0.00 0.00 0.00 0.00 0.00 0.00 0.00
0.00 0.00 0.00 0.00 0.00 0.00 0.00 0.00 0.01 0.00 0.01 0.00 0.01 0.00 0.00 0.00 0.00 0.00 0.00 0.00 0.00 0.00 0.00 0.00 0.00 0.00 0.00 0.00 0.00 0.00 0.00 0.00 0.00 0.00 0.00 0.00 0.00 0.00
0.00 0.00 0.00 0.00 0.00 0.00 0.00 0.00 0.00 0.01 0.00 0.00 0.00 0.00 0.00 0.00 0.00 0.00 0.00 0.00 0.00 0.00 0.00 0.00 0.00 0.00 0.00 0.00 0.00 0.00 0.00 0.00 0.00 0.00 0.00 0.00 0.00 0.00